Total_Precipitation_Accumulation
0.13 0.15 0.21 0.30 0.25 0.17 0.07 0.02 0.01 0.01 0.01 0.02 0.03 0.04 0.04 0.03 0.03 0.07 0.05 0.03 0.03 0.03 0.07 0.15 0.20 0.24 0.21 0.17 0.14 0.09 0.08 0.09 0.12 0.15 0.15 0.16 0.15 0.16 0.16 0.18 0.21 0.23 0.24 0.26 0.31 0.31 0.28 0.24 0.20
0.16 0.24 0.40 0.44 0.30 0.19 0.07 0.02 0.01 0.00 0.01 0.02 0.02 0.03 0.04 0.05 0.05 0.06 0.07 0.05 0.05 0.06 0.09 0.14 0.20 0.25 0.24 0.19 0.14 0.11 0.11 0.11 0.14 0.17 0.18 0.20 0.17 0.17 0.18 0.20 0.20 0.19 0.18 0.20 0.21 0.17 0.13 0.09 0.08
0.27 0.40 0.56 0.50 0.34 0.18 0.07 0.02 0.01 0.01 0.01 0.03 0.03 0.04 0.05 0.08 0.07 0.07 0.07 0.07 0.09 0.10 0.12 0.18 0.23 0.26 0.27 0.24 0.19 0.16 0.14 0.14 0.15 0.16 0.17 0.22 0.22 0.20 0.19 0.18 0.16 0.12 0.11 0.11 0.09 0.07 0.04 0.03 0.02
0.46 0.62 0.64 0.52 0.34 0.15 0.06 0.03 0.02 0.02 0.03 0.02 0.04 0.07 0.09 0.10 0.12 0.11 0.11 0.13 0.13 0.15 0.16 0.24 0.29 0.29 0.28 0.27 0.22 0.20 0.18 0.17 0.16 0.14 0.15 0.20 0.26 0.25 0.19 0.15 0.11 0.06 0.05 0.06 0.05 0.03 0.02 0.01 0.01
0.70 0.82 0.68 0.54 0.32 0.13 0.06 0.04 0.03 0.03 0.04 0.04 0.06 0.10 0.13 0.14 0.16 0.20 0.23 0.22 0.21 0.21 0.22 0.28 0.36 0.37 0.36 0.36 0.30 0.25 0.22 0.21 0.19 0.15 0.15 0.20 0.25 0.26 0.19 0.12 0.07 0.04 0.04 0.04 0.03 0.02 0.01 0.01 0.01
0.91 0.94 0.75 0.50 0.27 0.12 0.05 0.05 0.05 0.05 0.06 0.07 0.10 0.15 0.22 0.21 0.24 0.27 0.35 0.34 0.32 0.30 0.32 0.35 0.44 0.47 0.46 0.45 0.39 0.33 0.29 0.25 0.24 0.20 0.21 0.22 0.23 0.24 0.18 0.10 0.07 0.06 0.04 0.03 0.03 0.02 0.02 0.01 0.01
0.91 0.95 0.73 0.38 0.22 0.15 0.07 0.07 0.08 0.08 0.07 0.10 0.13 0.23 0.32 0.35 0.43 0.42 0.46 0.51 0.51 0.46 0.45 0.48 0.49 0.52 0.57 0.53 0.46 0.40 0.34 0.31 0.28 0.25 0.25 0.22 0.21 0.21 0.16 0.10 0.08 0.07 0.06 0.04 0.03 0.03 0.03 0.02 0.02
0.89 1.01 0.72 0.36 0.19 0.16 0.11 0.11 0.12 0.12 0.11 0.10 0.18 0.29 0.36 0.42 0.55 0.64 0.68 0.72 0.73 0.69 0.60 0.58 0.58 0.54 0.59 0.60 0.52 0.43 0.35 0.32 0.31 0.28 0.23 0.18 0.17 0.18 0.15 0.09 0.09 0.08 0.06 0.04 0.03 0.03 0.03 0.03 0.02
0.91 1.01 0.68 0.36 0.21 0.17 0.17 0.20 0.17 0.14 0.18 0.19 0.25 0.30 0.37 0.49 0.71 0.89 0.96 0.95 0.99 0.98 0.83 0.69 0.67 0.61 0.58 0.59 0.55 0.50 0.42 0.37 0.32 0.29 0.22 0.18 0.18 0.16 0.13 0.09 0.07 0.08 0.06 0.04 0.03 0.03 0.02 0.02 0.01
0.91 0.82 0.50 0.30 0.24 0.25 0.24 0.25 0.24 0.25 0.29 0.33 0.39 0.43 0.53 0.72 0.99 1.09 1.08 1.04 1.04 1.09 1.00 0.81 0.73 0.67 0.64 0.59 0.60 0.57 0.49 0.44 0.36 0.29 0.26 0.21 0.18 0.15 0.12 0.10 0.07 0.06 0.05 0.03 0.02 0.02 0.02 0.01 0.00
0.61 0.56 0.42 0.35 0.31 0.32 0.32 0.29 0.27 0.32 0.34 0.33 0.38 0.50 0.73 0.95 1.22 1.28 1.33 1.30 1.27 1.29 1.22 1.01 0.85 0.79 0.72 0.63 0.60 0.59 0.49 0.44 0.39 0.31 0.27 0.22 0.19 0.15 0.13 0.11 0.10 0.07 0.04 0.03 0.02 0.02 0.01 0.01 0.00
0.41 0.38 0.40 0.41 0.35 0.35 0.36 0.36 0.34 0.31 0.31 0.29 0.35 0.50 0.75 1.01 1.22 1.31 1.42 1.48 1.55 1.56 1.54 1.30 1.07 0.92 0.83 0.70 0.59 0.53 0.47 0.40 0.34 0.28 0.25 0.22 0.19 0.15 0.11 0.08 0.07 0.07 0.05 0.03 0.02 0.01 0.01 0.00 0.00
0.33 0.30 0.34 0.42 0.41 0.37 0.35 0.36 0.39 0.31 0.30 0.32 0.40 0.57 0.76 1.08 1.33 1.49 1.62 1.65 1.76 1.81 1.81 1.70 1.40 1.13 0.95 0.84 0.72 0.56 0.44 0.36 0.31 0.27 0.23 0.18 0.15 0.12 0.11 0.09 0.08 0.07 0.05 0.04 0.02 0.01 0.01 0.00 0.00
0.28 0.28 0.36 0.43 0.47 0.39 0.38 0.39 0.40 0.35 0.32 0.40 0.48 0.61 0.75 1.08 1.44 1.61 1.80 1.89 1.82 1.97 2.08 2.06 1.75 1.40 1.11 0.95 0.83 0.65 0.47 0.37 0.34 0.31 0.24 0.19 0.14 0.11 0.10 0.09 0.08 0.07 0.06 0.04 0.03 0.02 0.01 0.01 0.00
0.32 0.41 0.46 0.48 0.51 0.43 0.45 0.53 0.44 0.36 0.33 0.40 0.47 0.60 0.72 1.00 1.36 1.60 1.77 1.88 1.95 2.02 2.20 2.28 2.14 1.79 1.32 1.08 0.95 0.80 0.62 0.47 0.38 0.33 0.28 0.23 0.17 0.11 0.09 0.09 0.08 0.07 0.07 0.05 0.04 0.03 0.03 0.01 0.01
0.54 0.66 0.64 0.47 0.50 0.48 0.55 0.58 0.41 0.37 0.35 0.37 0.42 0.55 0.69 0.87 1.17 1.45 1.73 1.83 1.97 2.09 2.17 2.30 2.30 2.10 1.64 1.24 1.05 0.91 0.79 0.66 0.52 0.45 0.41 0.33 0.25 0.17 0.13 0.10 0.08 0.08 0.08 0.07 0.05 0.04 0.05 0.03 0.03
0.74 0.62 0.51 0.40 0.40 0.49 0.48 0.50 0.41 0.36 0.34 0.33 0.35 0.45 0.65 0.80 0.99 1.19 1.52 1.74 1.82 1.99 2.15 2.38 2.33 2.17 1.93 1.61 1.33 1.15 0.96 0.83 0.73 0.58 0.48 0.48 0.39 0.31 0.24 0.15 0.12 0.11 0.10 0.08 0.08 0.06 0.06 0.05 0.03
0.52 0.34 0.32 0.36 0.37 0.41 0.37 0.32 0.34 0.36 0.37 0.33 0.34 0.39 0.54 0.72 0.79 0.94 1.22 1.56 1.68 1.85 2.05 2.24 2.47 2.37 2.30 2.20 1.89 1.53 1.25 1.00 0.90 0.77 0.62 0.58 0.54 0.46 0.40 0.30 0.22 0.20 0.18 0.13 0.11 0.09 0.08 0.06 0.05
0.38 0.31 0.25 0.22 0.29 0.35 0.31 0.25 0.29 0.29 0.34 0.33 0.34 0.36 0.41 0.53 0.65 0.83 1.07 1.36 1.58 1.69 1.88 2.01 2.18 2.34 2.33 2.24 1.97 1.63 1.33 1.19 1.12 1.02 0.90 0.78 0.69 0.62 0.54 0.46 0.35 0.27 0.23 0.20 0.19 0.18 0.14 0.11 0.09
0.52 0.45 0.31 0.22 0.22 0.30 0.29 0.25 0.27 0.28 0.31 0.29 0.31 0.33 0.35 0.39 0.48 0.64 0.93 1.11 1.28 1.46 1.57 1.78 1.87 2.06 2.07 2.01 2.01 1.83 1.70 1.55 1.42 1.30 1.11 0.97 0.87 0.76 0.64 0.55 0.50 0.40 0.32 0.28 0.28 0.28 0.24 0.19 0.18
0.55 0.46 0.37 0.31 0.26 0.30 0.36 0.33 0.27 0.26 0.26 0.23 0.23 0.24 0.28 0.32 0.36 0.49 0.70 0.91 1.00 1.19 1.44 1.53 1.59 1.80 1.96 2.03 2.20 2.26 2.16 1.84 1.57 1.38 1.27 1.15 1.07 0.96 0.83 0.70 0.65 0.60 0.49 0.40 0.41 0.41 0.39 0.38 0.36
0.57 0.34 0.39 0.41 0.49 0.46 0.35 0.41 0.31 0.25 0.23 0.22 0.21 0.19 0.21 0.27 0.32 0.39 0.47 0.63 0.76 0.89 1.18 1.47 1.58 1.69 1.85 2.11 2.15 2.11 1.94 1.68 1.40 1.36 1.41 1.37 1.26 1.14 1.01 0.92 0.84 0.78 0.71 0.61 0.60 0.62 0.64 0.64 0.57
0.52 0.36 0.42 0.51 0.61 0.57 0.35 0.34 0.30 0.21 0.22 0.23 0.23 0.20 0.24 0.31 0.34 0.35 0.37 0.47 0.60 0.70 0.91 1.17 1.43 1.64 1.80 1.90 1.96 2.05 1.89 1.70 1.62 1.52 1.44 1.36 1.26 1.18 1.10 1.04 1.01 0.96 0.92 0.90 0.90 0.85 0.84 0.82 0.77
0.60 0.61 0.66 0.71 0.89 0.83 0.33 0.30 0.29 0.23 0.25 0.26 0.25 0.24 0.27 0.31 0.34 0.31 0.32 0.41 0.52 0.58 0.70 0.86 1.10 1.29 1.47 1.64 1.75 1.82 1.83 1.82 1.76 1.58 1.47 1.44 1.39 1.32 1.20 1.15 1.13 1.13 1.09 1.06 1.06 1.04 1.04 1.04 1.00
0.89 1.23 1.57 1.48 1.23 0.63 0.22 0.26 0.26 0.21 0.28 0.31 0.29 0.31 0.32 0.29 0.29 0.29 0.31 0.37 0.46 0.53 0.58 0.67 0.80 0.93 1.09 1.26 1.41 1.49 1.59 1.70 1.63 1.49 1.38 1.38 1.33 1.26 1.22 1.19 1.17 1.19 1.18 1.17 1.17 1.15 1.11 1.14 1.16
0.87 1.06 1.24 1.01 0.61 0.32 0.19 0.21 0.22 0.23 0.32 0.35 0.33 0.32 0.30 0.33 0.33 0.31 0.30 0.33 0.40 0.45 0.52 0.58 0.65 0.71 0.83 0.95 1.07 1.20 1.33 1.48 1.49 1.42 1.28 1.19 1.16 1.15 1.21 1.21 1.14 1.09 1.10 1.12 1.11 1.11 1.06 1.06 1.07
0.80 0.80 0.71 0.88 0.57 0.32 0.19 0.14 0.14 0.17 0.22 0.29 0.30 0.27 0.27 0.36 0.37 0.33 0.30 0.29 0.35 0.39 0.43 0.51 0.59 0.64 0.70 0.81 0.93 1.01 1.06 1.15 1.24 1.30 1.29 1.17 1.09 1.09 1.10 1.10 1.05 0.98 0.94 0.96 0.99 0.97 0.96 0.95 0.94
0.68 0.63 0.81 1.13 0.89 0.48 0.19 0.11 0.17 0.18 0.20 0.26 0.29 0.31 0.34 0.39 0.38 0.34 0.33 0.34 0.36 0.36 0.36 0.45 0.59 0.61 0.61 0.66 0.76 0.83 0.89 0.99 1.07 1.11 1.12 1.08 1.01 1.00 1.00 0.98 0.91 0.88 0.84 0.81 0.82 0.82 0.80 0.81 0.79
0.62 0.77 0.90 0.91 0.68 0.57 0.36 0.23 0.22 0.23 0.21 0.24 0.29 0.32 0.35 0.39 0.39 0.38 0.41 0.44 0.44 0.38 0.38 0.44 0.51 0.61 0.64 0.62 0.66 0.71 0.70 0.75 0.87 0.96 0.96 0.97 0.95 0.92 0.91 0.88 0.83 0.79 0.74 0.70 0.67 0.64 0.65 0.67 0.65
0.49 0.49 0.67 0.96 0.71 0.49 0.42 0.33 0.24 0.24 0.21 0.21 0.26 0.30 0.32 0.33 0.35 0.39 0.46 0.46 0.45 0.42 0.43 0.47 0.49 0.55 0.63 0.63 0.61 0.66 0.67 0.66 0.71 0.80 0.89 0.92 0.96 0.90 0.87 0.83 0.80 0.75 0.69 0.65 0.63 0.60 0.59 0.59 0.59